Tracking 19909 objects as of 21-Oct-2019
HD Live streaming from Space Station
objects crossing your sky now

SL-8 DEB

Track SL-8 DEB now!
10-day predictions


NORAD ID: 21252
Int'l Code: 1991-009BK
Perigee: 1,477.1 km
Apogee: 1,681.5 km
Inclination: 74.1 °
Period: 117.6 minutes
Semi major axis: 7950 km
RCS: 0.066 m2 (small)
Launch date: February 12, 1991
Source: Commonwealth of Independent States (former USSR) (CIS)
Launch site: PLESETSK MISSILE AND SPACE COMPLEX (PKMTR)

Note: This is SATELLITE DEBRIS
aabbcc
Your satellite tracking list
Your tracking list is empty




NASA's NSSDC Master Catalog

Two Line Element Set (TLE):
1 21252U 91009BK  19293.04077436  .00000054  00000-0  61014-3 0  9990
2 21252  74.1035 306.3456 0128572 300.1250  86.6173 12.24696224279419
Source of the keplerian elements: AFSPC